Theta_e
304 305 306 307 307 306 306 307 307 308 309 309 309 311 313 314 315 318 320 319 319 323 327 328 329 330 328 329 332 332 333 334 334 335 336 335 334 334 335 337 336 335 335 326 319 318 316 317 315 317 322 323 324 324 323 322 321 327 334 336 334 332 332 332 332 324 323 326 319 317 320 322 322 320 319 322 322 322 323 322 323 325 324 324 327 328 329 328
304 304 305 306 307 307 306 306 307 308 309 309 309 310 312 314 315 316 320 320 318 321 325 326 327 328 329 328 330 332 332 333 334 335 335 333 333 335 335 337 337 336 334 325 318 318 318 317 316 317 322 323 324 324 324 322 320 326 332 334 334 333 329 326 325 320 320 321 318 318 320 321 322 320 320 324 325 324 325 324 323 323 322 325 328 329 330 329
303 303 304 305 307 307 307 306 306 307 308 309 309 310 311 313 314 316 319 320 319 320 323 325 324 326 328 327 328 330 331 331 332 333 333 332 334 335 336 336 337 337 333 326 319 319 319 318 317 317 322 323 323 324 324 323 321 321 325 332 334 329 325 321 319 318 318 318 317 318 319 320 321 321 321 323 324 323 324 325 324 323 321 324 326 329 331 329
303 304 304 304 306 307 307 307 307 307 308 309 309 309 310 312 314 315 318 321 319 319 321 324 323 324 327 327 326 328 329 329 329 332 332 332 334 334 336 337 336 337 334 327 320 318 318 317 316 317 322 322 322 323 323 323 323 321 322 329 328 323 326 325 322 320 317 317 317 318 319 319 320 321 321 321 325 324 322 322 323 322 319 321 323 327 330 329
304 304 304 304 305 307 307 307 308 307 308 309 309 309 310 311 313 315 317 320 319 318 320 323 323 323 327 327 325 328 330 330 330 331 331 331 333 334 335 336 336 336 335 329 319 317 318 316 316 319 322 322 322 324 324 324 324 323 321 322 322 320 325 325 321 319 317 318 318 317 319 320 320 320 320 321 326 326 322 321 321 320 319 319 320 323 327 328
304 303 304 304 304 306 307 307 308 308 308 309 309 309 309 310 313 314 317 320 319 318 319 321 322 323 328 329 326 328 330 331 330 329 330 330 332 334 335 337 336 334 333 328 319 316 317 315 318 321 321 322 324 324 325 324 323 326 324 320 321 320 322 322 318 317 318 318 318 317 319 319 318 319 319 320 323 323 320 321 321 320 319 319 318 321 324 326
304 304 304 304 303 304 306 307 307 308 308 309 309 309 309 309 312 314 316 319 319 318 318 321 323 324 328 330 328 329 330 330 328 327 329 329 331 334 335 336 336 333 329 324 318 316 317 316 320 321 322 323 324 323 324 323 322 326 328 322 322 321 320 320 318 317 317 318 319 319 318 318 319 320 318 319 320 320 320 320 320 320 320 320 320 320 321 321
304 304 304 304 303 303 305 306 307 308 309 309 309 309 308 309 311 314 316 318 319 319 318 320 324 326 329 332 330 328 328 330 328 326 327 327 330 334 335 336 336 333 327 322 318 317 316 316 320 321 322 323 323 323 323 323 322 325 327 324 322 323 322 322 320 318 318 317 318 318 317 317 319 317 316 318 321 320 320 319 319 320 320 321 322 321 321 321
305 304 304 304 304 303 304 306 307 307 308 308 309 310 309 308 310 313 315 317 319 318 318 319 323 326 329 331 329 327 326 329 329 327 326 326 329 333 335 336 337 335 328 321 318 317 317 316 319 321 322 323 323 323 323 324 325 324 324 324 323 324 324 323 321 320 319 317 317 317 316 316 317 316 316 318 319 320 319 319 319 319 320 321 322 321 321 321
305 304 304 303 304 303 303 305 307 306 307 308 309 309 309 308 309 311 314 316 318 319 318 318 321 324 327 329 328 327 325 325 329 328 325 325 329 332 334 336 337 336 329 320 318 317 317 316 318 320 322 323 323 323 323 325 328 324 322 323 324 324 323 322 321 320 319 317 316 318 318 316 315 315 318 319 319 319 318 318 319 318 319 320 321 322 322 322
305 305 304 303 303 302 302 304 306 306 306 307 309 309 309 309 308 310 313 316 317 318 318 317 319 322 325 327 326 326 323 321 327 328 325 324 328 331 333 335 336 337 331 320 318 318 317 317 317 320 323 324 325 325 324 324 327 325 323 323 323 323 322 319 317 317 316 317 317 317 317 316 315 315 317 320 320 320 318 318 318 318 319 319 320 321 322 322
305 305 304 303 303 302 301 302 305 306 306 307 308 309 309 309 309 309 312 315 316 317 317 316 318 320 323 325 326 326 323 321 325 328 325 324 326 330 332 334 335 337 334 326 320 318 317 318 317 320 324 325 326 327 326 326 327 325 323 326 325 322 324 320 315 315 314 317 317 316 318 318 316 317 317 319 321 322 320 317 318 318 318 318 319 321 321 322
306 305 304 304 303 302 301 302 304 306 306 306 307 308 310 309 309 309 310 313 316 317 317 316 317 320 322 324 326 327 326 322 325 327 325 325 326 329 330 332 334 335 336 332 325 319 317 318 318 320 324 326 327 328 328 327 327 326 323 327 329 324 327 323 315 314 314 316 317 317 322 323 320 318 318 319 321 321 320 318 318 318 318 318 319 320 321 321
306 305 305 304 303 302 301 302 304 306 306 306 307 308 310 310 308 308 310 313 315 316 316 316 317 319 321 324 325 326 326 323 325 327 326 326 327 328 330 330 331 333 334 331 324 318 317 318 319 320 325 327 326 327 329 327 327 329 323 325 330 329 334 329 314 313 316 315 316 319 322 324 323 322 321 321 321 320 319 319 318 318 318 318 319 320 320 320
306 305 305 304 304 303 302 303 305 305 306 306 307 308 309 310 309 308 311 314 315 315 315 315 316 319 322 324 324 325 326 325 325 327 326 326 327 328 329 329 329 332 331 326 321 317 316 319 321 322 326 327 326 330 332 330 329 331 328 329 330 330 336 334 316 312 318 316 314 320 323 324 325 323 322 324 322 319 318 319 319 318 318 318 319 319 320 320
307 306 305 304 304 303 303 303 305 305 306 306 307 308 309 310 310 309 311 314 315 315 315 316 317 318 321 323 323 325 326 326 323 324 325 326 327 327 328 328 328 330 327 322 319 316 317 322 324 325 326 327 328 333 334 332 331 330 331 333 330 329 333 333 321 312 316 317 314 318 323 327 328 321 319 322 321 318 315 316 317 317 318 318 319 319 319 320
306 305 305 304 304 303 303 304 305 306 306 306 307 309 309 310 310 309 312 314 315 315 314 316 316 317 320 322 323 324 325 327 324 323 325 326 327 327 327 326 325 326 324 322 320 319 321 324 325 326 327 329 331 332 334 334 334 331 330 333 330 329 329 330 330 318 313 317 317 318 320 324 326 320 319 320 320 319 315 315 316 316 317 317 318 319 319 319
306 305 305 304 304 304 303 304 306 306 306 307 308 309 310 310 310 310 312 314 315 316 315 316 317 319 321 321 322 324 325 326 326 325 325 326 327 327 326 325 322 323 322 323 323 322 324 324 325 329 329 331 331 329 333 334 334 331 330 333 331 330 329 329 333 323 314 317 319 319 319 319 320 318 318 319 319 319 317 316 317 316 316 317 317 318 319 319
306 305 305 304 304 304 304 304 306 306 307 307 308 309 310 311 311 311 313 314 316 316 317 317 318 321 323 321 322 324 325 326 326 326 326 326 327 326 325 325 324 323 322 323 324 323 325 325 326 331 330 330 329 327 331 332 332 331 329 332 332 331 330 327 330 324 315 316 318 318 319 318 318 318 317 318 318 317 318 317 317 317 316 317 317 317 317 318
305 304 304 304 304 304 305 305 306 306 307 308 309 310 311 312 313 314 313 315 316 315 317 318 317 319 322 321 321 323 325 326 326 326 326 326 326 324 324 325 324 324 322 322 324 323 324 326 327 329 329 328 328 327 330 332 332 331 329 331 332 332 331 327 329 326 316 317 320 317 318 318 318 319 317 317 317 316 316 316 316 318 318 318 318 317 317 318
305 304 304 304 304 305 306 306 306 306 308 309 309 311 311 311 313 314 313 316 315 313 317 319 317 318 321 321 322 323 325 325 325 325 325 326 325 324 324 324 323 323 322 322 323 323 323 326 326 326 327 327 328 328 331 333 331 329 329 331 332 332 331 329 329 327 318 318 323 320 318 318 317 318 317 316 316 316 315 316 316 317 319 319 319 318 318 318
305 304 304 304 304 305 306 306 306 306 308 309 309 311 312 310 310 311 312 316 316 313 316 318 318 319 320 321 322 323 324 324 323 324 323 324 324 324 324 323 323 322 322 322 324 324 324 324 324 323 326 328 329 329 330 330 330 331 330 330 332 331 330 331 327 324 320 320 327 325 321 321 319 318 317 315 316 317 317 317 318 319 319 319 320 321 321 320
305 304 304 303 303 304 306 306 306 307 309 309 310 310 311 310 309 311 313 315 317 315 316 318 319 320 320 321 323 323 324 323 322 322 322 323 323 324 323 323 324 323 322 323 325 327 326 324 323 322 325 328 329 328 329 330 330 332 332 330 332 331 330 333 329 323 321 321 325 326 324 322 321 321 319 317 316 317 318 318 319 319 319 320 321 322 323 323
304 304 303 303 303 304 305 306 307 308 309 309 309 309 310 310 310 312 314 314 315 316 317 317 317 319 319 321 323 323 323 323 322 321 321 322 323 323 324 324 324 323 322 323 325 327 326 325 323 323 325 327 329 328 328 330 330 332 332 331 333 331 331 333 329 322 319 319 320 322 326 326 324 325 323 320 318 317 319 318 319 320 319 321 321 321 323 323
304 303 302 302 303 304 305 306 308 309 309 309 309 309 310 311 311 312 313 313 314 314 315 316 315 316 318 320 322 323 323 322 322 321 321 322 323 323 323 323 323 323 323 323 325 326 325 323 323 324 325 326 328 329 329 329 331 332 331 331 332 332 332 331 325 320 323 326 323 322 330 334 332 331 327 323 322 320 318 317 318 320 320 321 321 322 324 324
303 303 302 302 303 305 306 308 308 308 309 309 309 309 310 311 312 313 313 313 313 312 313 315 315 315 317 317 319 322 323 323 322 321 321 322 322 323 323 323 323 323 323 323 324 326 324 322 323 324 325 327 328 329 329 328 331 332 331 331 332 332 332 330 324 325 331 332 325 321 329 336 334 333 331 327 326 324 320 317 316 317 319 319 321 323 325 325
303 302 302 302 304 306 307 309 308 308 309 309 308 309 310 312 312 312 313 313 314 313 312 314 315 316 317 315 318 322 324 324 322 320 320 322 322 322 324 324 324 323 321 322 325 326 323 322 323 324 326 327 327 328 328 328 330 332 331 332 332 330 330 328 325 329 331 327 324 320 324 332 330 330 333 329 329 328 325 323 319 315 317 319 320 323 325 325
302 301 302 303 305 306 307 309 308 308 309 309 309 309 311 312 312 311 312 314 315 314 313 314 314 315 316 316 317 321 324 324 324 322 320 321 322 322 324 324 324 323 321 322 326 325 323 323 323 324 326 326 326 327 326 327 329 329 331 332 330 330 330 327 323 327 327 326 328 323 320 328 329 328 328 325 327 329 327 326 323 318 318 320 321 323 324 325
301 301 303 304 305 306 307 308 309 309 308 309 309 309 310 312 311 311 312 314 314 312 312 314 315 314 316 316 316 317 319 321 323 322 320 321 322 322 324 324 323 324 322 321 325 325 323 323 322 323 325 325 327 327 325 328 328 325 327 329 328 328 328 328 327 328 329 328 329 326 322 328 331 330 327 323 325 328 326 325 324 319 319 321 322 323 324 325
301 302 303 304 306 307 307 308 309 309 309 309 310 310 310 310 310 312 313 314 314 312 312 314 314 315 316 316 316 315 315 317 319 321 321 321 322 322 322 322 322 324 323 322 325 325 322 321 321 323 323 324 327 326 324 326 324 323 326 328 328 328 327 329 329 328 330 329 330 328 324 327 331 331 328 324 325 327 325 325 324 320 319 321 323 323 324 324
300 302 303 305 307 307 307 308 308 309 309 310 311 311 309 309 311 314 314 313 313 314 315 314 314 315 316 316 317 316 315 315 317 321 322 321 322 322 322 323 323 324 325 324 324 324 323 323 323 323 322 322 325 325 323 322 322 325 330 329 329 329 326 328 327 326 331 331 329 327 323 324 329 332 331 326 325 328 326 326 327 323 320 322 324 324 323 323
301 303 304 305 307 307 308 309 308 309 309 310 311 310 309 310 312 314 314 311 312 314 314 314 315 315 315 316 317 317 316 315 316 321 323 323 323 323 323 324 323 324 326 324 324 325 324 323 324 324 322 322 325 325 323 323 324 326 329 330 331 330 328 330 329 328 332 330 323 321 322 324 327 329 330 326 324 326 323 321 323 322 319 322 324 323 322 321
303 303 304 306 307 307 308 308 308 309 309 310 311 310 310 312 312 314 315 312 312 314 314 314 316 315 314 315 316 316 318 317 316 319 322 323 324 323 323 323 322 324 325 322 323 325 325 324 324 324 323 322 324 325 325 325 325 326 327 330 332 331 331 334 332 330 332 328 320 319 322 326 328 328 326 325 323 322 320 318 319 319 319 321 322 321 321 321
303 304 305 306 307 307 307 308 309 309 310 310 311 311 312 313 313 314 313 311 312 314 314 315 316 315 314 314 315 316 318 318 316 317 322 323 324 324 323 323 321 323 323 321 323 325 326 327 325 324 324 324 323 324 325 325 325 325 327 329 330 330 333 336 334 333 333 326 319 320 325 329 332 328 322 319 318 317 318 319 319 318 319 319 320 320 321 321
303 304 306 306 306 307 308 309 309 310 311 311 311 312 312 313 314 314 311 311 313 315 315 316 316 316 315 313 314 315 317 318 316 317 321 323 324 323 323 323 322 323 323 322 323 323 326 328 325 323 323 323 324 324 323 325 326 325 327 330 330 329 332 330 326 327 329 326 322 321 325 328 327 324 318 315 314 314 314 314 314 316 318 317 318 318 319 320
304 305 306 306 306 307 309 309 310 310 311 310 311 312 313 313 314 313 312 313 315 316 316 317 316 316 315 314 314 315 317 318 318 318 319 322 324 323 322 322 322 322 324 325 325 324 325 327 325 323 323 323 324 324 322 325 327 325 326 329 326 324 329 327 320 320 325 329 328 322 324 327 326 325 322 321 321 318 317 315 311 312 314 315 316 317 318 318
305 306 307 307 306 308 309 309 310 311 310 310 311 312 312 312 311 312 313 315 316 316 317 318 317 315 316 315 314 315 317 318 319 318 318 320 323 323 322 322 321 321 323 325 325 324 326 327 323 323 325 324 322 323 322 322 324 325 327 326 322 322 328 329 325 324 325 328 328 324 324 328 330 329 323 321 323 322 322 321 314 311 311 311 314 317 317 317
306 307 307 307 307 308 310 309 310 311 310 309 311 311 310 309 308 309 311 313 315 316 317 318 317 316 315 315 315 315 317 319 319 318 318 319 321 322 322 322 321 320 321 322 324 324 325 327 323 322 325 324 321 323 325 322 319 322 325 323 324 328 327 326 327 328 326 328 330 325 320 322 327 327 320 319 323 322 320 320 319 315 311 310 314 317 317 317
306 305 305 306 307 308 309 309 310 311 310 311 312 310 308 306 305 305 306 310 315 317 317 317 317 317 316 315 315 316 317 319 319 320 320 319 320 321 322 323 322 320 320 320 323 323 323 326 325 322 322 324 323 324 326 325 320 320 323 323 327 329 327 327 328 330 329 328 330 327 323 323 323 320 320 323 324 322 320 320 320 317 312 312 315 316 317 317
305 303 304 307 308 308 310 310 311 311 310 311 311 309 306 305 305 303 304 309 314 315 318 318 316 316 318 316 315 316 317 318 319 321 321 320 320 321 321 322 322 321 320 320 322 322 322 324 326 321 320 324 326 324 325 326 322 322 325 325 326 326 326 328 328 329 330 329 330 330 328 329 325 318 319 321 321 321 320 320 320 314 311 314 316 316 318 318
303 303 304 307 308 309 310 310 309 310 309 309 308 306 305 305 305 304 304 307 310 312 314 317 316 316 317 317 317 317 318 318 318 321 322 320 321 321 321 321 322 321 322 322 322 322 322 324 324 321 322 325 326 324 324 324 322 323 325 324 325 324 326 329 328 327 327 326 330 330 327 329 327 317 315 318 319 319 318 318 318 313 312 316 317 317 318 318
303 304 304 306 308 309 309 307 305 306 308 308 306 305 305 305 305 305 305 306 309 309 310 313 316 316 316 318 319 319 319 319 318 320 322 321 321 322 321 320 321 321 322 323 323 320 322 324 323 321 323 323 322 322 325 325 322 322 324 323 324 324 324 328 329 327 325 323 326 326 324 326 321 313 315 318 317 315 314 313 314 312 313 315 317 318 318 318
303 304 303 305 307 308 308 306 304 305 306 305 304 304 305 305 305 305 306 308 309 310 311 313 314 315 314 315 318 318 319 320 319 319 321 321 321 321 320 320 320 321 322 324 323 321 321 323 322 321 322 320 319 320 323 324 322 322 323 322 323 324 324 327 328 326 326 324 325 326 326 327 319 314 316 313 311 311 310 311 312 311 313 315 316 317 318 318
302 302 302 304 306 306 306 306 306 306 305 304 304 304 304 304 305 306 307 308 308 311 313 312 311 312 311 310 312 315 317 319 320 320 320 321 320 319 319 320 320 321 321 323 323 321 322 322 321 323 323 321 321 322 322 321 321 322 322 321 322 323 323 325 325 323 325 326 325 326 329 326 318 315 315 312 313 314 310 310 312 311 312 314 315 317 318 318
302 302 302 302 303 304 304 305 306 306 305 305 305 305 304 304 303 304 305 305 305 308 312 310 308 310 310 309 310 312 312 315 319 321 320 320 321 319 319 320 320 320 321 321 320 320 322 323 322 323 325 324 324 326 324 322 321 321 322 321 322 323 323 323 324 323 325 326 324 325 327 324 315 313 314 314 317 318 312 310 311 310 311 314 315 317 317 318
303 303 302 301 301 302 302 304 305 306 305 306 306 305 305 305 303 302 304 304 304 306 309 309 308 310 310 310 312 311 309 311 314 319 320 321 322 321 318 319 320 320 320 320 319 320 322 323 322 322 323 323 324 326 325 323 322 322 322 321 321 322 322 323 324 324 325 325 324 323 324 322 317 316 319 318 318 322 321 314 310 310 312 314 315 316 317 317
304 304 303 303 303 302 303 304 305 306 306 306 306 305 305 305 304 303 304 304 304 305 308 309 309 311 311 310 313 312 310 310 311 315 318 318 319 319 316 318 321 320 320 319 317 319 321 321 321 321 321 321 323 325 324 322 323 323 323 322 321 322 322 323 325 324 324 324 324 323 321 322 320 321 326 327 324 326 325 314 309 312 314 314 315 316 316 317
304 304 303 303 304 304 304 305 305 305 306 306 306 305 304 304 304 305 305 304 303 305 308 309 309 311 311 311 313 312 310 311 311 313 315 315 317 318 317 318 320 319 320 318 317 319 321 321 321 321 321 321 323 325 324 322 322 322 322 322 321 321 322 322 323 323 323 324 323 322 321 320 319 320 326 326 321 319 317 312 310 312 313 314 315 315 316 316
303 303 302 302 303 304 304 304 304 305 306 306 306 304 304 305 305 305 305 305 305 305 307 309 309 309 310 312 313 312 311 313 313 312 312 314 316 318 319 320 319 319 320 318 317 318 320 321 321 321 321 321 323 326 324 322 322 322 322 322 321 321 321 321 322 322 322 322 322 321 321 319 317 318 320 320 316 312 311 311 311 312 312 313 315 315 315 316
302 303 302 302 303 303 303 304 305 305 305 306 306 304 304 305 305 305 304 305 306 306 307 309 308 307 309 310 312 313 311 313 316 313 311 314 315 316 318 318 318 320 321 318 317 317 319 321 321 321 322 321 321 324 324 322 322 322 322 322 321 321 321 321 321 321 321 322 321 320 321 319 317 316 315 315 315 314 312 311 311 312 313 313 313 314 315 315
302 303 302 303 303 303 304 304 304 305 305 306 306 305 304 305 305 304 304 303 305 306 307 307 307 307 308 308 310 312 309 310 313 310 309 312 313 314 316 315 315 320 322 318 316 317 318 321 322 321 321 321 320 321 323 322 322 323 323 322 321 321 321 321 321 321 321 321 321 321 320 319 318 317 315 313 314 316 315 312 312 313 314 314 315 315 315 315
302 303 303 303 304 303 303 304 304 304 304 305 305 305 305 305 304 304 304 303 303 305 306 306 306 307 308 308 309 308 306 305 307 306 307 310 310 310 312 309 310 315 318 318 318 318 319 320 321 321 321 321 320 319 320 321 323 323 322 321 321 321 320 321 320 320 320 320 321 321 320 319 319 319 318 316 315 315 315 315 314 314 315 315 316 316 316 316
Wind_Speed
28 27 27 28 28 30 32 33 34 35 35 35 35 34 34 34 33 32 28 33 41 38 35 35 35 35 35 34 34 33 30 32 35 36 40 41 36 33 32 32 28 24 23 23 23 23 24 22 20 19 15 12 10 10 9 6 7 6 3 2 3 3 4 5 6 6 4 2 6 12 15 10 5 10 12 8 8 12 14 12 11 15 15 10 8 5 9 18
29 28 28 28 28 29 31 33 34 35 35 36 35 34 35 34 34 33 29 30 39 39 35 37 37 34 34 35 36 34 31 34 36 41 44 38 34 36 34 32 30 27 23 24 26 25 26 25 23 20 16 12 10 11 10 8 8 5 3 2 4 4 4 6 6 7 5 3 6 12 14 11 9 13 14 7 6 10 9 9 10 13 14 11 10 9 12 19
30 30 29 28 28 29 30 32 34 34 35 35 35 35 35 36 34 34 31 28 34 38 35 38 40 36 33 36 39 35 32 31 34 45 46 39 37 38 36 32 32 29 25 25 27 27 27 26 24 20 16 11 9 12 11 8 8 4 3 2 5 5 4 6 5 5 7 6 6 11 12 10 11 15 14 8 6 7 8 10 11 12 15 14 12 12 16 21
31 31 30 29 28 28 29 31 32 34 34 35 36 35 36 37 35 34 32 28 30 35 36 38 40 39 35 37 40 36 30 23 30 46 45 42 40 38 37 32 32 32 27 25 26 26 25 23 22 20 16 10 8 11 10 9 9 4 4 4 5 6 4 8 8 6 7 8 8 12 9 7 11 14 13 11 7 4 12 19 17 15 17 17 14 14 19 22
32 31 30 30 29 28 29 31 32 33 34 34 35 35 36 37 36 35 33 29 29 32 36 38 40 39 36 38 40 37 28 12 21 42 45 45 42 38 38 33 31 33 29 26 28 27 23 22 21 20 14 8 7 7 8 13 11 4 5 5 4 7 4 7 9 6 6 7 9 12 8 7 11 12 14 15 9 8 16 21 20 16 15 16 16 16 21 23
33 32 31 30 30 29 29 30 31 32 33 34 35 36 36 37 37 34 34 30 29 31 35 40 42 41 37 38 41 39 29 9 6 24 44 48 41 40 39 35 33 31 30 27 29 29 23 23 22 19 13 7 9 7 8 16 13 5 4 5 6 8 4 5 8 8 8 10 11 12 8 9 11 8 13 19 16 15 14 15 17 16 13 14 16 18 21 23
33 32 31 30 31 30 30 30 31 32 32 33 34 36 36 38 37 34 35 31 29 31 34 41 44 43 38 34 39 38 35 30 10 7 34 46 39 40 38 36 36 32 31 30 31 31 26 25 23 20 14 6 10 9 9 16 14 7 3 5 8 10 8 6 7 8 8 11 11 12 8 10 12 6 10 19 22 19 12 10 14 16 15 15 16 18 20 22
34 33 32 31 31 31 31 31 32 32 32 33 34 35 36 38 37 35 35 32 30 30 33 41 42 44 38 33 38 32 35 50 34 10 19 39 40 38 37 37 39 35 33 32 32 32 28 28 26 21 11 6 11 11 10 11 8 7 6 6 7 10 14 11 8 7 7 8 10 11 9 10 13 7 7 16 21 17 13 10 10 14 18 18 18 19 19 21
34 34 33 31 31 31 32 31 32 32 32 33 33 34 35 38 38 36 36 34 31 29 32 37 41 44 36 38 39 26 37 53 45 25 14 31 43 38 39 40 41 39 35 34 32 32 30 29 29 23 12 10 13 10 13 10 4 11 12 8 7 9 13 13 12 12 10 9 10 9 8 9 11 6 6 16 19 15 15 13 10 12 17 20 20 21 20 20
34 34 33 32 31 31 32 32 32 33 33 33 33 34 35 37 38 37 36 34 32 29 31 33 39 43 35 41 33 20 48 55 41 35 19 24 42 39 40 41 42 43 38 36 33 32 32 30 31 25 13 10 11 9 14 10 5 12 14 10 9 11 10 10 12 15 13 10 12 10 7 9 9 5 6 13 16 15 17 17 15 14 16 19 20 22 23 22
35 34 33 33 32 31 32 33 32 33 33 33 33 34 35 37 38 38 37 34 33 30 30 31 35 41 37 39 31 23 51 57 42 39 24 22 41 43 43 42 42 45 40 37 35 34 33 29 31 26 10 6 9 7 11 13 7 9 13 9 9 10 7 7 9 13 11 7 13 11 5 6 4 4 10 13 13 14 17 19 20 19 18 19 20 22 24 25
35 34 33 33 33 31 32 33 33 33 33 33 33 34 34 36 37 38 38 34 33 31 30 30 30 40 39 34 39 38 46 54 47 36 25 26 41 44 42 42 42 44 43 40 37 34 32 29 31 27 10 6 10 3 8 16 11 7 8 5 5 5 5 9 8 10 10 4 9 8 3 6 5 10 16 16 16 15 17 21 22 22 21 21 22 24 25 26
34 33 33 33 32 31 32 34 33 33 33 33 33 35 34 35 37 37 38 35 33 32 30 29 28 37 38 32 40 42 39 49 47 34 25 23 36 43 40 41 40 41 42 42 40 36 34 31 31 29 14 9 10 4 6 12 10 6 4 3 2 0 4 9 8 7 10 5 7 9 3 7 10 15 16 16 20 19 19 23 24 24 24 24 25 26 27 27
34 33 33 32 31 31 32 34 33 32 33 33 33 35 34 34 37 37 37 35 32 31 29 28 29 33 37 36 36 34 38 48 41 33 29 22 32 42 39 39 38 38 41 42 41 36 35 31 28 27 16 10 11 6 3 3 6 4 1 1 2 3 4 7 7 10 8 5 9 10 4 9 9 11 13 16 20 22 24 26 27 28 27 28 28 29 29 29
33 33 32 31 31 30 32 34 33 32 33 33 32 34 34 34 36 37 36 34 32 30 27 26 30 31 29 34 33 29 38 48 40 36 38 30 31 41 41 40 37 36 39 39 40 36 32 29 24 20 12 11 11 7 3 2 0 2 3 3 2 4 5 6 6 14 10 5 10 9 3 9 8 9 12 17 21 24 28 28 29 30 30 30 30 31 32 30
33 33 32 31 31 30 32 33 32 32 33 33 32 32 34 33 34 37 35 34 33 30 28 26 32 32 17 19 25 24 31 48 54 48 44 37 32 39 41 38 37 36 36 33 33 35 29 23 19 14 10 9 8 5 4 1 2 3 6 4 3 6 4 3 4 13 12 6 7 8 5 5 4 3 4 9 19 22 24 26 28 30 31 32 32 33 33 32
33 33 32 31 31 31 32 33 32 32 32 33 32 31 33 33 33 36 34 35 33 30 30 27 32 33 19 13 17 24 32 42 54 53 48 44 35 37 41 38 35 33 34 30 25 28 24 17 12 8 6 5 4 5 5 8 7 4 4 3 3 5 5 3 3 7 10 5 6 8 7 8 6 5 4 2 8 14 19 24 25 27 29 31 33 34 35 35
33 33 32 31 31 31 32 32 32 31 32 33 31 30 31 30 31 33 33 33 31 27 27 29 29 21 18 22 17 22 37 39 45 50 51 50 38 36 42 39 35 32 28 23 18 21 19 11 6 3 4 4 5 10 11 11 9 7 8 5 2 2 5 7 3 4 8 5 6 6 9 14 10 12 19 16 9 10 16 20 23 26 28 30 32 34 36 37
33 33 32 31 30 31 31 32 33 31 32 32 30 29 28 26 28 32 34 33 29 21 13 23 32 14 7 28 31 22 31 38 40 45 50 53 42 36 40 37 37 34 23 13 12 19 17 8 4 4 8 11 12 16 13 7 9 10 8 6 5 5 6 6 4 5 10 6 6 9 11 13 10 11 21 25 19 17 19 17 19 24 27 30 32 34 36 38
33 33 32 31 31 31 31 32 33 32 32 31 30 28 24 23 18 20 32 37 37 29 11 18 41 34 11 19 39 31 25 32 38 43 47 53 47 36 36 35 32 28 18 11 10 17 18 9 8 12 14 15 15 15 10 3 7 9 7 6 8 8 6 5 3 5 8 6 7 11 12 12 12 12 17 23 17 16 20 20 22 24 26 29 30 33 36 38
33 33 32 31 31 31 31 32 33 33 32 31 33 30 26 29 18 13 27 30 39 44 24 17 39 47 22 7 31 40 27 25 33 44 45 48 48 34 30 31 22 13 14 15 14 14 15 9 15 19 14 13 11 8 6 5 8 9 9 8 8 8 6 4 4 3 6 5 5 7 9 12 14 13 17 18 11 13 21 22 25 28 29 30 30 32 33 35
33 32 32 32 31 32 31 32 33 33 33 32 36 35 33 40 34 26 29 18 29 49 35 21 30 40 26 8 21 38 32 20 20 36 42 43 43 30 23 23 16 10 11 15 13 9 10 13 20 18 11 10 9 7 5 6 9 8 7 7 6 6 1 2 2 1 5 4 4 4 6 11 13 11 15 17 14 17 25 27 29 31 31 32 32 32 32 33
33 32 32 32 32 32 31 32 33 32 35 36 41 42 39 44 39 29 26 10 15 41 39 26 25 29 26 15 20 32 32 22 17 29 43 44 37 31 24 17 14 12 12 13 12 11 11 15 19 17 12 12 10 9 6 3 6 5 6 7 5 5 4 3 3 1 4 3 2 2 5 8 8 7 12 20 23 23 28 31 32 33 32 32 33 33 33 34
33 32 32 32 32 32 32 32 32 33 38 39 42 46 43 43 38 28 22 6 2 23 36 30 22 23 23 19 23 30 26 25 27 34 45 44 33 26 23 18 15 11 13 18 18 16 9 6 17 18 13 14 11 10 10 5 4 3 5 7 4 5 6 4 2 2 1 1 1 3 5 8 7 8 12 14 14 19 27 29 30 34 35 34 35 34 35 35
33 32 31 32 32 33 32 31 34 38 39 40 42 45 43 39 36 32 20 4 2 11 25 29 21 19 22 20 24 31 23 21 29 40 50 51 40 25 17 20 16 11 17 21 17 14 7 9 23 19 12 16 13 11 13 9 6 4 6 7 6 7 6 4 4 3 2 3 3 3 3 7 3 7 12 8 3 10 17 19 25 32 33 34 35 37 38 38
33 32 31 32 33 32 31 31 38 40 37 42 44 43 44 39 35 34 18 1 4 6 10 21 18 16 22 17 21 30 18 13 25 41 50 52 50 33 16 14 10 12 19 16 9 6 4 11 20 16 15 18 13 11 13 12 8 6 5 7 6 7 6 5 6 4 3 4 3 3 5 7 4 6 10 6 5 10 10 11 20 27 29 31 34 39 41 41
33 32 31 32 33 32 34 35 38 40 40 44 43 43 46 41 37 34 16 2 6 8 8 15 15 18 21 16 23 22 6 12 22 33 46 46 43 32 17 11 8 11 14 8 6 5 7 13 16 17 18 14 13 13 13 15 10 4 7 11 6 6 6 5 6 4 4 2 3 1 4 5 8 7 4 3 6 10 10 11 15 20 28 32 35 40 42 43
34 33 32 33 34 35 37 36 35 40 46 45 43 47 46 43 42 30 11 5 6 10 7 11 13 18 20 20 28 16 5 23 21 25 46 46 36 25 12 14 13 12 15 12 12 10 13 17 18 20 17 12 14 11 11 15 8 2 6 10 6 6 5 3 4 2 1 2 4 3 3 3 8 7 2 0 5 11 14 15 13 17 25 31 35 39 40 41
34 33 33 34 33 36 37 36 37 41 47 43 41 48 45 46 41 19 4 5 5 7 7 14 15 15 16 17 22 17 9 14 9 25 48 40 31 21 9 17 17 12 16 16 10 5 9 18 20 18 13 10 8 7 12 14 5 2 7 9 6 6 5 4 3 3 3 2 7 6 5 5 9 7 3 1 4 11 14 12 11 15 23 28 31 34 35 36
34 33 34 34 34 36 36 38 40 39 41 41 42 49 45 39 26 8 6 6 3 5 9 14 17 17 18 13 12 16 14 6 3 25 39 30 28 20 11 19 15 8 14 12 5 3 6 16 18 12 10 9 9 9 12 12 8 8 9 8 6 5 4 4 2 4 2 5 7 9 10 7 8 8 7 5 7 11 11 9 8 11 20 27 30 33 36 36
34 34 34 35 36 36 36 41 43 38 39 41 45 50 38 19 9 5 9 5 3 6 9 10 14 20 20 14 9 14 14 7 6 17 21 18 19 13 10 12 7 5 11 8 5 5 8 12 10 9 16 16 13 7 7 10 12 8 6 6 4 2 3 3 3 3 2 6 4 7 10 9 9 7 5 7 8 8 9 9 8 8 18 28 31 32 33 33
34 36 35 36 37 37 38 42 43 41 42 46 50 45 24 6 5 7 6 6 5 8 9 10 12 16 19 17 13 14 12 7 9 11 14 14 11 9 11 11 8 8 7 7 7 6 7 10 8 9 17 21 15 6 4 6 9 6 5 8 5 1 1 1 2 1 4 5 2 2 6 7 11 6 4 10 9 8 10 11 12 13 20 28 29 28 25 24
34 35 36 37 37 39 41 40 41 43 44 52 52 33 12 5 7 7 6 6 5 5 10 13 14 16 19 18 16 14 11 9 10 9 13 17 13 13 16 16 17 11 6 10 11 7 6 7 9 7 9 19 18 10 6 5 8 9 9 10 8 5 4 7 6 2 4 4 1 2 4 4 9 4 8 14 13 15 17 19 22 21 24 28 28 27 25 24
33 33 35 36 37 40 40 39 43 45 47 55 42 18 9 7 7 10 8 4 4 4 10 13 15 17 18 19 17 14 11 9 9 7 9 15 14 12 13 17 19 9 4 10 9 10 11 7 13 13 10 19 19 15 14 10 10 12 7 6 7 6 6 7 6 4 3 1 0 2 3 4 5 2 7 11 12 17 20 23 25 25 28 30 30 31 31 32
32 33 33 33 35 38 39 40 44 48 54 49 22 8 12 8 5 11 9 4 3 5 10 13 15 15 14 16 17 17 15 9 11 10 8 11 12 12 13 14 19 11 7 10 5 7 10 5 11 14 12 20 18 13 16 13 8 7 4 4 6 5 4 1 2 3 3 2 1 3 3 4 4 6 9 7 9 13 17 20 20 24 29 27 28 32 33 34
29 29 31 33 36 38 42 44 46 53 56 35 8 6 11 5 3 7 7 6 5 8 13 12 12 12 11 12 12 16 16 9 11 10 6 7 11 16 16 12 19 18 12 12 5 5 9 5 11 13 10 20 22 15 17 15 10 5 5 7 4 3 6 4 1 2 4 2 3 3 6 5 3 8 11 10 12 11 12 15 17 22 25 23 27 31 29 29
26 27 32 37 39 40 46 48 50 60 51 21 5 7 6 2 3 4 5 8 8 12 14 9 9 10 11 11 10 16 15 8 10 9 5 6 8 15 18 12 18 22 17 14 5 5 8 3 9 15 13 21 25 20 17 13 9 7 8 8 4 4 3 4 1 3 3 4 4 2 8 5 1 6 6 7 13 15 14 14 13 15 17 20 26 28 25 25
29 31 32 38 43 44 49 50 53 59 39 11 7 7 2 2 2 1 2 5 8 12 12 8 8 8 11 12 10 15 17 11 10 9 6 5 3 10 17 12 15 22 22 17 6 4 7 3 2 11 11 12 13 14 10 5 1 3 8 9 6 3 2 2 3 2 2 5 4 3 4 4 7 8 2 4 11 14 15 13 9 10 13 19 24 23 21 21
30 25 20 31 43 46 50 53 54 48 23 6 9 8 2 2 1 1 2 2 6 9 10 7 4 3 8 11 11 15 17 15 13 9 7 6 2 7 14 12 14 21 23 18 8 4 6 5 2 4 5 9 8 7 10 7 3 4 5 6 3 3 4 5 4 2 3 5 5 4 2 4 9 8 7 10 11 10 11 9 8 11 16 22 25 23 20 19
30 16 10 29 44 48 53 55 47 30 11 6 8 5 3 3 1 1 2 1 3 4 6 5 4 5 8 10 11 11 14 17 16 11 8 8 5 6 12 12 12 20 22 17 9 4 3 4 4 1 3 9 9 9 15 17 9 5 7 7 6 4 2 2 3 2 3 4 5 5 6 8 7 6 12 15 12 11 13 10 9 11 16 20 22 24 23 20
29 9 9 33 44 51 54 41 22 11 4 4 3 2 4 4 4 2 3 1 3 3 3 5 5 7 7 8 9 8 9 13 15 11 6 9 8 5 12 16 13 17 19 13 9 6 2 3 6 5 5 10 12 13 15 18 17 13 12 13 13 10 5 5 7 3 2 4 5 4 8 10 5 5 10 13 12 14 15 11 7 9 14 17 17 19 22 21
22 4 14 34 43 53 47 17 2 4 3 4 4 4 6 5 4 3 2 3 3 3 4 5 3 4 4 4 4 6 8 9 14 12 6 10 11 6 15 26 22 19 18 12 10 8 3 3 5 4 4 6 6 6 3 5 13 12 8 9 10 9 7 8 9 5 2 4 3 2 6 9 4 7 9 10 11 13 13 9 7 10 15 18 18 17 19 20
13 8 21 34 39 48 34 6 2 5 2 5 8 6 5 5 3 3 0 2 2 2 4 3 2 2 2 2 1 5 8 7 13 14 8 9 12 9 18 31 28 19 15 11 10 6 2 4 5 3 1 1 2 1 5 4 8 9 5 4 8 10 11 8 6 4 4 5 4 2 8 10 4 6 8 7 7 9 11 12 11 13 15 17 19 16 15 18
13 18 24 29 32 35 19 3 7 7 3 6 7 5 4 4 3 4 2 0 1 2 3 2 1 1 3 3 2 4 7 6 10 13 9 8 11 14 21 32 30 18 14 14 13 11 6 6 8 6 3 1 2 2 2 4 4 8 6 7 10 14 13 4 2 2 3 9 10 6 12 13 3 1 3 5 7 8 13 17 17 16 15 14 15 14 12 14
14 15 14 17 23 22 8 1 7 9 8 9 6 5 5 5 4 4 4 3 1 2 3 2 2 4 4 4 4 2 2 3 4 7 6 5 8 11 18 32 30 19 20 23 20 16 10 6 9 10 9 8 8 10 12 9 9 10 12 14 15 19 19 10 6 7 7 12 12 9 14 11 2 3 2 4 5 7 11 16 16 15 15 13 12 13 13 13
10 6 6 7 10 9 3 4 8 9 9 11 7 4 4 5 3 4 5 3 1 2 4 2 3 5 3 4 5 3 3 4 2 5 7 7 6 3 12 29 30 23 27 26 19 13 4 3 11 13 13 16 16 15 17 17 14 13 18 23 23 24 25 18 12 11 12 14 12 14 21 14 1 1 4 5 6 7 7 10 12 12 12 12 12 12 12 13
7 5 5 4 4 4 4 5 8 6 7 8 5 3 5 7 5 2 4 2 0 2 4 2 2 4 4 6 5 3 2 3 4 5 7 7 3 2 7 21 26 30 30 21 19 14 2 5 14 15 18 20 10 5 10 14 16 17 21 25 24 24 25 21 17 17 16 14 12 16 23 19 8 3 6 7 7 6 6 8 10 9 8 10 11 10 11 12
4 6 5 4 2 3 5 7 9 8 8 6 3 3 7 8 5 3 2 2 1 1 2 2 1 2 7 9 5 4 6 2 2 3 2 3 2 1 2 7 15 29 26 12 14 13 3 8 17 16 20 19 6 7 11 16 18 20 22 24 23 22 23 22 22 23 19 15 15 18 20 19 12 6 8 9 7 8 8 7 7 6 6 8 10 11 12 12
7 9 7 4 3 3 7 11 13 11 9 7 4 4 6 7 6 3 2 3 2 1 0 3 3 2 5 7 4 5 7 5 2 4 2 3 4 3 4 2 8 20 19 8 8 9 4 8 15 14 17 17 8 7 11 15 17 18 20 21 21 21 22 22 23 24 21 16 15 17 17 15 12 10 12 15 15 14 10 7 6 4 5 7 9 11 13 14
10 10 10 9 7 7 9 10 11 10 6 5 5 4 5 7 7 4 2 3 3 2 1 4 6 4 3 4 4 4 6 5 5 6 5 4 3 3 4 3 3 11 14 8 6 7 6 9 12 10 11 13 9 7 10 15 17 18 19 19 18 17 18 18 19 20 18 15 16 18 17 15 12 12 15 21 24 18 11 10 11 9 7 7 9 13 16 16
12 16 21 17 8 5 9 7 6 7 4 2 4 5 5 7 9 7 4 4 3 4 4 7 8 5 3 3 4 2 2 2 1 5 9 9 7 6 4 2 4 9 12 10 7 6 7 8 8 8 9 10 10 11 13 14 16 20 21 19 17 16 16 18 20 21 20 20 22 21 16 17 15 10 12 17 20 18 16 17 16 14 15 14 15 17 16 14
19 21 25 21 8 2 7 7 5 7 4 2 5 4 4 8 10 8 6 4 4 5 6 9 8 4 3 3 3 2 3 4 2 3 8 9 6 6 7 7 6 6 6 8 7 8 9 8 7 8 8 8 11 15 15 13 14 16 18 19 21 20 21 22 22 25 24 21 19 18 19 19 10 7 9 12 14 17 21 24 25 24 24 24 23 23 21 18
Wind_Direction
239 238 239 238 238 236 237 236 233 233 235 236 233 230 230 230 230 229 227 220 214 211 207 212 219 218 220 224 220 220 221 221 226 226 225 224 216 213 216 214 210 210 205 202 207 204 200 196 193 193 188 179 178 177 178 181 174 168 133 143 203 183 193 190 181 190 167 225 219 188 184 176 167 180 183 184 184 172 171 193 199 200 215 223 211 203 196 193
237 238 238 237 238 235 236 236 234 234 234 236 234 230 229 229 229 227 226 220 213 211 208 210 217 219 217 223 223 217 222 225 229 232 226 218 214 214 216 214 209 207 203 202 206 204 201 198 192 190 189 179 169 169 174 178 173 161 113 168 222 187 194 192 181 198 193 237 209 188 190 185 177 174 174 178 182 172 173 199 201 205 218 212 202 201 199 196
236 237 237 237 237 234 234 235 235 235 234 235 234 231 229 229 228 227 226 220 214 211 207 208 214 220 217 224 228 220 226 232 232 234 223 212 214 214 213 213 210 206 203 202 205 207 206 201 193 189 186 181 171 169 172 179 184 187 138 181 239 208 209 206 202 226 223 237 196 179 190 189 182 175 175 181 177 189 202 201 197 207 215 210 207 201 195 198
235 235 236 236 236 235 233 233 234 235 234 234 234 231 229 229 228 227 226 221 217 212 206 205 212 219 219 225 231 227 231 237 234 232 220 211 213 212 211 211 208 206 204 203 204 208 208 202 194 190 185 180 176 173 174 181 185 190 167 193 232 191 212 223 218 246 235 230 195 172 171 186 187 178 181 171 154 238 229 212 209 216 217 210 206 198 194 199
233 234 234 234 235 235 233 232 233 234 234 233 234 232 228 228 228 227 227 222 216 213 206 205 211 215 218 224 229 228 225 231 244 235 222 212 210 207 209 207 204 205 203 203 203 205 205 200 194 189 185 175 168 171 191 190 176 175 203 224 224 172 194 232 207 212 211 192 177 165 158 187 183 184 192 176 170 227 227 222 221 226 228 219 215 202 196 201
233 233 233 233 234 235 234 232 232 233 233 232 233 232 229 228 228 226 227 223 216 212 206 206 211 212 214 222 225 225 218 213 282 238 223 214 206 205 207 205 202 202 203 202 202 204 204 196 191 186 178 172 177 182 197 189 179 190 232 233 222 194 195 229 197 191 189 171 169 172 176 181 170 194 205 193 209 226 231 237 229 229 234 229 224 208 202 204
232 232 232 232 232 234 234 232 231 231 232 230 231 232 229 228 228 225 224 224 217 212 207 204 206 207 210 218 220 220 220 225 240 235 222 215 204 202 205 205 200 198 201 200 200 203 203 195 191 185 175 173 190 200 195 184 184 189 230 227 218 217 216 222 201 194 192 183 184 181 180 180 177 196 203 207 227 234 245 253 232 229 227 224 221 214 215 214
231 231 231 231 231 233 232 232 231 230 230 229 230 231 229 228 228 225 223 224 217 212 208 202 201 202 206 216 215 212 221 227 227 239 231 213 205 200 199 201 198 197 200 199 200 202 201 195 192 186 179 189 191 198 186 172 184 193 210 217 210 229 231 235 231 221 215 198 188 182 189 196 194 194 194 218 231 232 236 238 222 220 219 221 221 219 222 220
231 230 230 231 231 231 231 231 230 230 229 228 229 229 228 227 227 225 223 225 218 213 211 204 203 200 205 219 210 205 227 229 223 228 248 211 203 199 196 198 196 196 198 198 198 200 201 196 193 188 188 200 192 191 180 168 214 209 201 191 193 232 238 240 237 231 231 212 187 183 208 214 202 204 231 232 232 228 226 227 221 214 215 219 222 222 222 224
230 229 229 231 229 230 231 229 230 230 229 227 228 228 227 226 226 224 223 225 219 214 212 209 207 200 211 222 203 204 230 231 226 221 237 212 201 199 197 198 198 196 197 196 196 200 202 199 196 193 199 202 190 188 182 182 222 209 200 191 202 229 242 243 234 228 225 216 202 193 215 222 199 199 240 233 228 227 222 225 227 221 221 221 223 225 225 228
230 229 229 230 229 230 230 230 229 230 230 227 226 227 226 224 225 224 222 225 221 214 211 213 211 205 218 221 200 210 224 227 230 219 225 216 199 199 198 198 200 197 196 194 195 200 201 203 198 192 200 199 180 185 192 199 213 204 194 196 223 234 253 247 229 224 213 218 218 204 232 242 193 206 230 224 223 229 223 224 227 225 228 226 226 226 226 229
228 228 228 229 230 230 230 231 228 229 231 227 224 225 225 223 224 223 222 226 223 215 211 213 212 208 218 220 212 219 218 222 229 214 213 216 200 200 201 200 202 201 199 196 195 198 199 202 200 194 191 171 165 159 206 205 207 203 176 173 242 247 273 241 223 216 197 215 220 195 285 264 223 231 231 228 229 233 228 226 226 226 229 227 226 226 226 230
225 226 227 228 229 228 228 230 229 228 229 228 224 223 224 222 222 222 221 225 223 216 212 212 213 210 216 226 226 226 216 217 224 210 206 214 199 199 202 201 203 204 204 200 195 195 197 200 201 198 188 168 167 146 192 193 187 196 169 146 207 185 288 235 210 188 185 208 189 166 253 251 233 237 232 233 232 228 225 226 226 226 227 226 225 225 227 229
223 224 226 227 228 227 226 228 229 227 228 229 224 221 222 220 221 221 220 224 222 216 211 211 213 211 219 232 235 232 220 216 220 216 214 216 200 195 198 199 200 202 204 202 197 193 194 196 199 200 191 179 174 146 137 159 166 169 139 195 174 170 267 252 190 160 168 215 178 158 245 255 248 248 237 235 232 226 224 225 226 225 225 226 226 226 229 229
221 223 225 226 226 225 225 227 228 225 226 228 224 222 220 217 219 218 219 223 220 215 210 212 214 210 224 237 235 232 222 216 218 218 216 216 204 194 192 195 195 198 200 201 200 196 193 191 192 193 186 174 167 145 102 28 279 162 175 206 175 188 256 299 196 175 178 203 177 162 237 263 268 266 249 235 226 224 224 226 226 225 226 226 227 228 230 231
220 222 224 225 225 224 224 225 226 224 225 227 223 221 220 218 217 216 219 221 218 214 209 214 215 209 223 243 232 226 215 215 218 219 217 218 212 197 189 190 191 193 194 196 200 199 194 188 184 182 169 162 165 140 109 157 248 221 201 192 176 187 214 299 231 200 193 162 177 198 228 264 272 255 244 221 220 222 223 229 229 228 229 227 229 230 231 232
219 221 223 224 224 223 223 225 225 222 223 225 222 219 220 217 215 214 218 220 217 212 211 219 214 209 224 236 219 212 209 211 215 218 220 220 219 203 189 182 182 186 188 190 195 193 186 181 180 180 165 154 152 138 161 210 211 206 202 198 202 189 182 205 276 231 200 171 200 213 232 243 240 251 277 236 218 225 227 233 235 234 235 233 233 233 233 233
217 219 222 223 224 222 222 224 223 221 221 224 220 216 218 217 213 213 217 222 216 208 217 221 209 205 228 224 210 209 213 213 210 213 216 214 216 210 194 181 176 177 176 179 184 179 173 172 171 156 167 169 164 175 201 211 192 188 192 192 212 185 192 199 223 208 180 205 224 196 235 245 247 266 268 264 250 241 239 238 241 241 240 240 239 237 236 235
217 219 221 222 223 221 222 221 221 220 218 220 219 214 217 214 210 214 218 220 208 198 213 208 201 203 238 218 213 208 207 208 206 206 207 206 208 205 192 181 175 169 158 161 179 173 163 154 162 183 195 194 192 196 205 196 175 184 181 176 184 197 219 204 216 206 172 191 229 209 233 245 247 257 259 258 252 249 254 252 248 246 244 243 243 242 240 239
216 218 221 222 222 220 221 220 219 218 215 217 215 209 207 197 196 212 214 216 210 203 210 195 199 211 236 213 209 203 191 194 193 192 200 201 197 189 179 173 169 163 159 163 172 177 169 161 195 205 202 196 197 200 200 165 152 158 156 182 199 207 232 202 212 233 178 183 231 224 237 251 249 249 253 256 251 244 251 255 252 250 248 246 245 245 244 243
216 218 220 221 221 220 221 220 219 217 213 214 212 206 198 189 185 194 196 209 217 211 216 208 198 209 225 211 203 201 186 183 184 184 190 190 183 178 170 165 160 165 176 153 139 168 176 190 211 205 197 187 187 185 171 152 151 153 167 190 208 212 230 207 207 230 165 180 245 229 246 257 250 252 259 259 248 236 241 245 248 249 249 248 247 247 248 247
215 217 220 221 221 221 221 220 220 216 212 214 213 209 205 200 197 198 191 197 219 212 214 216 203 209 221 220 200 197 186 179 181 179 177 174 174 175 171 169 169 174 167 142 130 155 181 214 213 196 178 164 165 172 162 160 166 169 172 182 212 207 227 273 230 204 154 184 254 236 245 256 254 257 261 256 242 240 244 244 247 248 248 248 247 248 250 251
215 216 219 221 221 221 221 220 218 215 212 213 214 211 209 206 202 201 196 184 214 210 210 210 203 206 211 206 191 188 185 182 175 173 171 169 174 178 174 175 179 163 151 159 162 167 192 219 204 182 171 163 165 179 176 161 172 181 170 178 208 169 152 238 234 183 170 178 200 225 269 266 262 265 262 254 244 245 250 250 251 251 249 250 252 253 253 253
215 216 219 221 221 221 220 219 215 214 213 213 216 213 208 206 202 197 189 170 256 208 209 209 205 205 202 196 190 188 190 188 179 174 173 171 173 178 178 176 175 158 165 182 180 182 201 202 174 175 178 168 165 179 185 186 180 195 194 189 188 155 170 205 179 131 153 279 107 74 318 278 240 241 257 255 239 240 247 248 250 250 250 252 254 255 255 254
215 217 219 219 220 219 217 218 216 215 214 214 216 213 208 204 201 195 183 162 333 204 208 211 218 220 199 191 193 189 190 195 188 178 175 176 174 173 181 180 175 171 182 186 184 192 210 160 161 169 174 170 172 185 191 191 185 215 215 187 156 151 167 162 137 115 91 279 258 110 287 277 236 228 251 258 218 235 242 241 244 247 248 248 249 252 253 254
216 217 218 218 219 217 215 217 216 214 213 216 215 208 204 201 195 191 179 104 240 187 188 197 211 217 197 195 184 179 187 208 196 182 176 179 179 173 172 178 179 187 185 183 185 196 204 171 159 158 169 173 181 192 188 181 187 221 189 154 141 131 137 151 151 156 184 240 276 154 209 266 284 232 242 245 237 250 248 242 245 246 246 244 245 249 251 252
216 216 217 218 217 213 212 215 214 211 211 216 213 203 200 196 191 185 173 284 223 159 146 177 190 192 193 198 174 170 169 161 179 188 181 179 177 171 166 169 179 190 172 159 205 193 162 170 160 160 170 173 189 198 187 176 183 216 151 148 153 112 117 156 158 189 226 262 316 165 173 263 270 248 242 221 240 266 266 257 250 243 243 244 245 247 249 250
216 217 218 218 217 214 213 213 213 211 211 213 207 201 195 186 186 181 173 256 182 133 141 170 182 182 182 188 183 189 152 147 162 190 185 181 174 166 168 179 177 175 164 169 201 188 164 172 168 166 171 180 196 190 168 169 178 228 138 143 147 108 105 120 128 175 320 343 250 218 138 234 261 263 308 191 236 259 258 251 249 241 240 243 245 248 250 252
215 218 219 218 218 218 216 214 214 214 213 210 203 200 190 176 176 172 188 239 146 128 148 161 180 174 155 164 187 214 207 164 171 177 179 184 179 168 170 188 181 163 175 189 200 179 165 178 170 164 175 187 183 141 150 168 176 138 111 97 86 77 74 69 86 109 44 290 231 202 174 219 263 253 211 140 221 241 250 249 246 244 244 246 248 251 253 254
216 219 219 218 220 218 216 214 217 219 212 206 202 198 185 169 165 165 219 214 116 144 145 153 171 153 141 149 181 213 219 246 248 167 173 182 180 170 156 179 180 154 180 194 185 149 152 168 166 166 183 166 119 121 154 158 138 116 98 82 68 44 47 54 45 80 63 263 224 192 186 202 267 250 191 194 209 219 239 250 248 244 247 251 252 254 255 255
217 220 219 218 219 216 212 212 215 217 210 202 195 186 176 164 162 193 201 171 86 161 145 153 166 152 161 175 180 200 205 235 226 167 165 174 178 168 143 166 171 150 184 184 159 154 139 151 163 177 175 146 112 120 140 138 142 127 102 114 102 34 27 31 10 63 204 248 225 188 174 180 240 245 175 215 227 214 226 235 237 232 241 249 254 257 259 259
218 220 220 219 218 215 212 213 211 209 206 196 181 169 161 167 200 193 173 145 169 188 159 154 166 166 177 184 195 200 186 199 212 182 166 167 177 177 167 174 164 159 187 176 159 156 150 166 169 162 162 149 134 129 113 136 160 146 129 143 146 162 139 207 218 132 221 243 295 179 152 184 239 245 216 242 245 235 235 235 234 229 235 245 253 261 266 266
218 220 222 220 217 213 213 214 208 204 197 184 172 161 162 217 195 175 158 164 210 198 158 154 165 174 174 182 204 199 184 197 200 199 184 172 176 183 181 180 174 177 183 164 164 154 160 191 170 142 153 160 155 147 155 167 172 173 166 167 178 173 180 207 197 192 236 236 324 163 147 238 263 263 232 238 239 239 242 244 244 244 245 251 256 261 266 266
219 220 222 220 215 213 214 211 205 199 184 174 169 162 189 210 178 171 171 197 257 176 156 158 163 171 175 191 204 186 191 211 182 199 206 177 178 184 182 181 180 186 149 159 178 167 169 193 176 169 167 169 170 172 172 160 167 187 176 165 197 188 189 209 195 197 218 178 309 205 171 207 219 261 246 240 249 252 252 251 251 254 256 258 260 260 259 258
220 220 221 221 215 214 215 208 201 192 176 169 169 177 192 194 167 179 174 173 234 169 154 158 161 170 183 198 204 190 197 207 174 198 229 190 183 179 177 180 178 175 146 164 192 173 185 219 176 172 159 164 176 176 159 141 157 194 151 163 223 199 151 139 203 191 133 109 250 217 232 221 203 280 279 254 255 257 255 255 252 252 254 255 255 256 256 255
221 220 218 218 214 212 211 203 193 184 174 166 172 198 188 192 168 180 166 155 190 161 150 159 165 173 186 195 204 197 202 208 175 189 234 212 196 182 179 182 177 175 166 169 170 171 196 215 170 164 155 174 180 166 158 158 157 167 172 190 207 121 110 100 254 9 73 204 237 184 243 286 324 283 269 250 256 260 253 249 242 243 248 248 249 253 255 256
218 217 213 213 213 210 205 196 182 177 175 169 193 193 174 203 190 175 157 151 169 161 152 164 174 173 182 192 200 190 192 205 177 176 213 214 207 187 183 185 181 181 178 172 176 190 184 177 172 169 171 186 178 157 164 172 147 154 191 187 124 85 96 106 170 11 47 239 266 214 235 262 286 262 256 236 249 255 252 249 242 241 240 240 246 251 254 255
214 210 209 211 213 206 198 194 179 172 173 175 193 188 145 185 191 177 176 151 159 165 161 167 172 176 186 188 194 185 182 188 177 173 196 198 219 194 181 178 183 188 187 177 177 204 165 93 209 190 178 177 158 140 163 196 65 149 176 161 140 167 207 157 174 189 189 235 279 276 252 241 220 226 219 225 234 238 248 253 253 247 233 235 245 250 253 253
198 196 205 204 206 202 193 189 180 171 172 189 195 196 139 141 175 329 251 165 143 161 168 164 146 177 195 187 186 183 183 190 184 176 191 181 179 201 184 173 179 190 191 184 184 202 170 147 198 215 165 145 146 157 178 193 332 21 118 146 167 196 193 191 190 165 180 228 268 282 292 243 222 195 179 221 235 234 245 248 241 241 234 236 243 246 250 251
176 172 197 186 192 199 188 181 179 175 179 193 186 183 121 130 154 6 301 229 122 149 169 164 155 170 186 192 191 183 186 197 194 187 191 173 151 193 194 181 174 185 191 194 198 189 171 177 164 116 127 152 171 195 187 184 179 149 159 177 198 201 170 188 203 127 141 202 240 259 264 254 239 178 181 210 232 237 238 237 230 235 237 242 247 243 243 248
165 165 193 172 178 187 179 172 176 178 180 179 150 125 139 134 124 99 331 356 70 56 109 123 151 163 170 188 193 184 184 197 200 195 188 179 173 187 197 191 177 178 185 197 207 188 164 190 165 149 168 176 188 200 197 192 184 177 185 186 187 189 170 188 212 185 131 202 194 211 259 261 237 183 190 202 219 233 240 250 248 236 239 249 257 247 239 244
163 169 185 169 168 173 169 158 144 150 150 158 116 105 133 116 109 142 315 3 62 53 66 84 112 128 154 194 196 179 175 191 203 198 178 186 195 192 190 190 184 178 180 190 200 187 124 121 141 138 174 193 203 197 163 181 191 198 208 187 175 181 177 193 213 197 168 221 168 130 269 271 212 183 196 198 215 234 247 265 265 249 244 246 254 252 239 239
163 138 171 172 165 165 162 136 121 137 77 129 111 81 106 109 109 144 185 353 67 73 64 81 118 118 156 192 165 180 179 188 203 200 179 181 199 202 186 184 182 179 182 189 193 187 97 108 133 113 130 329 343 85 54 62 189 205 230 181 163 183 195 200 203 177 167 212 207 216 262 264 230 194 210 226 252 265 265 261 255 254 252 246 248 248 238 235
137 125 160 178 173 167 163 146 154 138 96 129 113 76 88 80 80 128 145 314 56 99 106 125 166 103 137 128 95 189 195 193 204 203 189 175 192 197 187 185 184 180 187 191 181 178 183 170 158 146 155 150 53 97 22 2 201 197 203 194 182 187 189 171 133 151 191 208 198 208 249 255 259 143 238 274 298 295 270 259 253 252 253 250 247 243 236 234
126 118 148 174 175 174 175 175 154 138 130 130 115 121 116 73 56 86 104 105 58 99 112 117 129 101 109 118 81 10 256 216 202 193 179 171 192 196 187 188 189 187 198 197 180 173 184 182 174 170 170 178 178 187 194 191 190 194 192 191 192 189 183 176 187 195 209 213 195 198 238 249 45 59 275 288 294 286 271 266 260 250 248 250 245 236 233 232
136 127 140 143 154 165 158 136 140 133 139 134 120 130 118 101 95 65 77 97 22 72 91 82 120 102 99 125 101 51 331 326 291 177 164 173 194 217 189 189 191 194 201 196 172 162 175 188 192 195 191 193 197 199 191 180 181 190 190 191 194 193 188 189 199 201 206 217 208 209 228 234 149 21 281 283 273 271 276 278 272 255 243 243 240 228 218 218
150 137 151 137 122 132 122 130 133 130 143 138 127 133 114 116 127 57 46 80 144 104 78 50 108 124 154 152 127 142 157 352 315 195 170 172 187 320 197 191 194 197 199 189 165 161 146 201 199 207 212 210 202 157 157 169 184 193 195 198 199 196 194 194 205 209 205 214 222 218 226 232 229 258 275 263 258 264 267 273 276 267 245 233 229 217 205 208
152 122 137 144 129 148 146 144 139 130 131 122 89 113 125 119 122 111 70 76 89 96 63 69 140 161 169 164 144 146 150 88 322 225 177 150 139 49 179 203 204 198 195 182 171 176 178 207 202 205 215 216 180 116 154 174 192 199 199 202 201 199 199 201 211 216 209 212 229 226 225 230 226 233 257 251 235 232 243 263 276 273 250 229 217 207 205 207
122 114 113 99 88 119 123 130 131 122 122 122 95 113 132 120 117 132 133 102 80 348 56 141 165 171 171 173 148 143 164 156 167 222 234 171 168 143 142 191 219 202 193 171 180 194 189 209 207 203 214 217 185 150 171 177 192 206 204 205 203 201 205 209 217 224 222 225 240 241 242 242 222 207 228 242 241 235 241 263 269 261 243 229 221 216 215 212
142 140 129 104 90 104 111 120 128 119 111 108 104 124 133 121 127 128 88 94 120 168 171 135 143 139 135 153 142 164 194 173 161 199 193 159 176 172 155 169 194 197 194 176 181 209 210 212 206 193 210 218 193 175 183 180 190 205 207 206 203 199 206 215 223 230 231 235 245 249 255 255 234 201 206 227 239 243 243 241 242 248 253 246 237 231 226 221
147 146 138 123 102 115 126 125 124 118 112 93 116 138 134 131 144 134 76 47 99 141 160 141 132 115 84 124 152 179 220 159 146 200 180 173 198 202 189 202 173 181 191 182 172 196 212 212 196 189 212 214 190 193 201 188 191 205 207 200 194 194 204 212 219 222 218 219 230 236 242 246 238 201 186 210 224 234 242 239 236 241 248 254 259 257 253 251
134 132 130 121 98 84 127 132 133 125 129 142 130 134 138 145 154 139 100 56 44 82 123 133 127 113 103 134 161 147 139 131 97 142 165 177 197 177 154 150 143 150 179 183 178 181 195 208 197 188 207 211 195 198 201 194 200 211 206 192 189 196 204 210 218 222 216 212 219 224 230 238 230 155 173 203 204 215 232 237 239 246 251 254 258 262 266 271